COSMOS 2398

导读

COSMOS 2398是独联体(CIS)发射的“宇宙”系列卫星,该系列是世界上规模最大的卫星家族,涵盖应用卫星、科学卫星与技术试验卫星,多承担军事任务。 该星于2003年6月4日发射入轨,延续了系列军用卫星的定位,大概率承担侦察、导航或空间环境探测任务,服务于独联体的空间安全与战略观测需求,是苏联航天遗产在独立国家联合体时期的延续产物。

Basic Information
目录编号:
27818
目录名称:
COSMOS 2398
国际标识:
2003-023A
轨道中心:
EARTH
卫星名称:
COSMOS 2398
卫星全名:
--
卫星状态:
在轨 (已飞行8501 天)
发射日期:
2003-06-04 UTC
国别 :
俄罗斯(独联体) (CIS)
星等 :
--
This satellite is enrolled in the Space Conjunction Data Service (SCDS) and the current flight risk assessment level is: No High Risk
Orbit Information
数据来源 国际轨道数据 AOE轨道数据
星历时间 2026-09-12T09:03:47+0800
13小时前
查看轨道信息
2026-09-10T18:00:00+0800
2天前
查看轨道信息
半长轴 7369.07km 7369.074km
偏心率 0.0032643 0.0032612
轨道倾角 82.945° 82.945°
近地点辐角 74.468° 79.065°
升交点赤经 71.308° 72.508°
平近点角 48.149° 286.486°
近地点 966.878km 966.904km
远地点 1014.988km 1014.97km
周期 104.925分钟 104.925分钟
每日圈数 13.724097 13.724086
Detailed Information
使用方式:
暂无
2D Orbit Map
3D Orbit Map
Orbit Altitude Analysis Chart
Orbit Inclination Analysis Chart
Orbit Comprehensive Analysis Chart
View Comprehensive Chart
Miss Distance Evolution Trend with All Objects
Collision Probability Evolution Trend with All Objects